| time (UTC) | temp F | wind direction | speed MPH | gust MPH | rain 1hr in | rain 24hr in | rain mn in | humidity % | barometer mb |
| 20260905083343 | 64 | 139 | 0.0 | 1.0 | 0.00 | 0.00 | 0.00 | 99 | 1048.6 |
| 20260905082838 | 64 | 144 | 0.0 | 1.0 | 0.00 | 0.00 | 0.00 | 99 | 1048.6 |
| 20260905082334 | 64 | 142 | 0.0 | 1.0 | 0.00 | 0.00 | 0.00 | 99 | 1048.5 |
| 20260905081829 | 64 | 148 | 1.0 | 2.0 | 0.00 | 0.00 | 0.00 | 99 | 1048.4 |
| 20260905081324 | 64 | 186 | 1.0 | 2.0 | 0.00 | 0.00 | 0.00 | 99 | 1048.5 |
| 20260905080823 | 64 | 145 | 1.0 | 2.0 | 0.00 | 0.00 | 0.00 | 99 | 1048.4 |
| 20260905080318 | 64 | 105 | 1.0 | 1.0 | 0.00 | 0.00 | 0.00 | 99 | 1048.5 |
| 20260905075817 | 64 | 126 | 0.0 | 1.0 | 0.00 | 0.00 | 0.00 | 99 | 1048.5 |
| 20260905075316 | 64 | 130 | 0.0 | 1.0 | 0.00 | 0.00 | 0.00 | 99 | 1048.5 |
| 20260905074815 | 64 | 88 | 2.0 | 2.0 | 0.00 | 0.00 | 0.00 | 99 | 1048.5 |
| 20260905074311 | 64 | 116 | 0.0 | 2.0 | 0.00 | 0.00 | 0.00 | 99 | 1048.6 |
| 20260905073806 | 64 | 88 | 1.0 | 1.0 | 0.00 | 0.00 | 0.00 | 99 | 1048.6 |
| 20260905073302 | 64 | 154 | 1.0 | 2.0 | 0.00 | 0.00 | 0.00 | 99 | 1048.7 |
| 20260905072756 | 64 | 125 | 0.0 | 0.0 | 0.00 | 0.00 | 0.00 | 99 | 1048.5 |
| 20260905072251 | 64 | 136 | 0.0 | 0.0 | 0.00 | 0.00 | 0.00 | 99 | 1048.5 |
| 20260905071748 | 64 | 127 | 0.0 | 2.0 | 0.00 | 0.00 | 0.00 | 99 | 1048.4 |
| 20260905071244 | 64 | 112 | 2.0 | 3.0 | 0.00 | 0.00 | 0.00 | 99 | 1048.7 |
| 20260905070738 | 64 | 123 | 1.0 | 1.0 | 0.00 | 0.00 | 0.00 | 99 | 1048.6 |
| 20260905070235 | 64 | 169 | 2.0 | 2.0 | 0.00 | 0.00 | 0.00 | 99 | 1048.2 |
| 20260905065733 | 64 | 98 | 2.0 | 3.0 | 0.00 | 0.00 | 0.00 | 99 | 1048.5 |
| 20260905065227 | 64 | 114 | 0.0 | 2.0 | 0.00 | 0.00 | 0.00 | 99 | 1048.4 |
| 20260905064722 | 64 | 110 | 0.0 | 1.0 | 0.00 | 0.00 | 0.00 | 99 | 1048.1 |
| 20260905064218 | 64 | 110 | 0.0 | 1.0 | 0.00 | 0.00 | 0.00 | 99 | 1048.2 |
| 20260905063716 | 64 | 110 | 1.0 | 1.0 | 0.00 | 0.00 | 0.00 | 99 | 1048.2 |
| 20260905063213 | 64 | 103 | 0.0 | 2.0 | 0.00 | 0.00 | 0.00 | 99 | 1048.1 |
| 20260905062708 | 64 | 109 | 1.0 | 1.0 | 0.00 | 0.00 | 0.00 | 99 | 1048.2 |
| 20260905062208 | 64 | 155 | 1.0 | 2.0 | 0.00 | 0.00 | 0.00 | 99 | 1048.1 |
| 20260905061708 | 64 | 136 | 0.0 | 1.0 | 0.00 | 0.00 | 0.00 | 99 | 1048.0 |
| 20260905061203 | 64 | 88 | 0.0 | 1.0 | 0.00 | 0.00 | 0.00 | 99 | 1047.9 |
| 20260905060657 | 64 | 103 | 0.0 | 2.0 | 0.00 | 0.00 | 0.00 | 98 | 1048.0 |
| 20260905060154 | 65 | 109 | 2.0 | 5.0 | 0.00 | 0.00 | 0.00 | 98 | 1047.9 |
| 20260905055653 | 65 | 120 | 1.0 | 3.0 | 0.00 | 0.00 | 0.00 | 98 | 1048.0 |
| 20260905055148 | 65 | 120 | 0.0 | 6.0 | 0.00 | 0.00 | 0.00 | 98 | 1048.2 |
| 20260905054644 | 65 | 124 | 0.0 | 1.0 | 0.00 | 0.00 | 0.00 | 97 | 1048.0 |
| 20260905054139 | 65 | 109 | 1.0 | 2.0 | 0.00 | 0.00 | 0.00 | 97 | 1048.2 |
| 20260905053639 | 65 | 104 | 1.0 | 2.0 | 0.00 | 0.00 | 0.00 | 97 | 1048.2 |
| 20260905053134 | 65 | 140 | 1.0 | 3.0 | 0.00 | 0.00 | 0.00 | 97 | 1048.1 |
| 20260905052633 | 65 | 127 | 1.0 | 1.0 | 0.00 | 0.00 | 0.00 | 97 | 1047.9 |
| 20260905052128 | 65 | 124 | 1.0 | 3.0 | 0.00 | 0.00 | 0.00 | 96 | 1047.8 |
| 20260905051623 | 65 | 103 | 0.0 | 1.0 | 0.00 | 0.00 | 0.00 | 96 | 1047.7 |
| 20260905051120 | 66 | 127 | 0.0 | 1.0 | 0.00 | 0.00 | 0.00 | 96 | 1047.8 |
| 20260905050610 | 66 | 148 | 0.0 | 3.0 | 0.00 | 0.00 | 0.00 | 96 | 1047.7 |
| 20260905050107 | 66 | 96 | 1.0 | 2.0 | 0.00 | 0.00 | 0.00 | 96 | 1047.6 |
| 20260905045606 | 66 | 116 | 1.0 | 2.0 | 0.00 | 0.00 | 0.00 | 96 | 1047.5 |
| 20260905045102 | 66 | 77 | 3.0 | 3.0 | 0.00 | 0.00 | 0.00 | 95 | 1047.7 |
| 20260905044601 | 66 | 106 | 1.0 | 3.0 | 0.00 | 0.00 | 0.00 | 95 | 1047.8 |
| 20260905044056 | 66 | 149 | 1.0 | 2.0 | 0.00 | 0.00 | 0.00 | 95 | 1047.8 |
| 20260905043555 | 66 | 56 | 0.0 | 3.0 | 0.00 | 0.00 | 0.00 | 95 | 1047.9 |
| 20260905043051 | 66 | 119 | 1.0 | 3.0 | 0.00 | 0.00 | 0.00 | 95 | 1048.1 |
| 20260905042549 | 66 | 126 | 0.0 | 2.0 | 0.00 | 0.00 | 0.00 | 95 | 1047.9 |
| 20260905042045 | 66 | 165 | 1.0 | 2.0 | 0.00 | 0.00 | 0.00 | 95 | 1047.9 |
| 20260905041540 | 66 | 77 | 3.0 | 3.0 | 0.00 | 0.00 | 0.00 | 95 | 1047.8 |
| 20260905041036 | 66 | 170 | 0.0 | 3.0 | 0.00 | 0.00 | 0.00 | 95 | 1047.9 |
| 20260905040535 | 66 | 111 | 1.0 | 2.0 | 0.00 | 0.00 | 0.00 | 94 | 1047.6 |
| 20260905040034 | 66 | 119 | 0.0 | 2.0 | 0.00 | 0.00 | 0.00 | 94 | 1047.6 |
| 20260905035529 | 66 | 61 | 3.0 | 3.0 | 0.00 | 0.00 | 0.00 | 94 | 1047.7 |
| 20260905035026 | 67 | 152 | 3.0 | 5.0 | 0.00 | 0.00 | 0.00 | 94 | 1047.8 |
| 20260905034522 | 66 | 110 | 1.0 | 3.0 | 0.00 | 0.00 | 0.00 | 94 | 1047.8 |
| 20260905034021 | 66 | 126 | 0.0 | 1.0 | 0.00 | 0.00 | 0.00 | 94 | 1047.9 |
| 20260905033515 | 66 | 82 | 1.0 | 1.0 | 0.00 | 0.00 | 0.00 | 94 | 1048.2 |
| 20260905033011 | 66 | 127 | 0.0 | 1.0 | 0.00 | 0.00 | 0.00 | 94 | 1048.0 |
| 20260905032506 | 66 | 38 | 1.0 | 2.0 | 0.00 | 0.00 | 0.00 | 94 | 1048.2 |
| 20260905032001 | 66 | 136 | 0.0 | 0.0 | 0.00 | 0.00 | 0.00 | 94 | 1048.1 |
| 20260905031456 | 66 | 98 | 1.0 | 1.0 | 0.00 | 0.00 | 0.00 | 94 | 1047.9 |
| 20260905030951 | 66 | 132 | 2.0 | 5.0 | 0.00 | 0.00 | 0.00 | 94 | 1047.9 |
| 20260905030447 | 66 | 87 | 1.0 | 2.0 | 0.00 | 0.00 | 0.00 | 94 | 1048.0 |
| 20260905025945 | 66 | 160 | 1.0 | 5.0 | 0.00 | 0.00 | 0.00 | 94 | 1047.8 |
| 20260905025441 | 66 | 49 | 1.0 | 2.0 | 0.00 | 0.00 | 0.00 | 94 | 1047.9 |
| 20260905024937 | 66 | 113 | 0.0 | 1.0 | 0.00 | 0.00 | 0.00 | 94 | 1047.6 |
| 20260905024432 | 66 | 134 | 0.0 | 0.0 | 0.00 | 0.00 | 0.00 | 94 | 1047.8 |
| 20260905023927 | 66 | 124 | 0.0 | 0.0 | 0.00 | 0.00 | 0.00 | 94 | 1047.7 |
| 20260905023422 | 66 | 123 | 0.0 | 1.0 | 0.00 | 0.00 | 0.00 | 94 | 1047.7 |
| 20260905022921 | 66 | 111 | 0.0 | 2.0 | 0.00 | 0.00 | 0.00 | 94 | 1047.6 |
| 20260905022417 | 66 | 143 | 0.0 | 1.0 | 0.00 | 0.00 | 0.00 | 94 | 1047.6 |
| 20260905021911 | 66 | 96 | 0.0 | 2.0 | 0.00 | 0.00 | 0.00 | 94 | 1047.6 |
| 20260905021406 | 66 | 152 | 0.0 | 2.0 | 0.00 | 0.00 | 0.00 | 94 | 1047.8 |
| 20260905020901 | 66 | 90 | 1.0 | 3.0 | 0.00 | 0.00 | 0.00 | 93 | 1047.6 |
| 20260905020400 | 66 | 59 | 2.0 | 2.0 | 0.00 | 0.00 | 0.00 | 93 | 1047.6 |
| 20260905015855 | 66 | 80 | 1.0 | 2.0 | 0.00 | 0.00 | 0.00 | 93 | 1047.5 |
| 20260905015354 | 66 | 127 | 0.0 | 2.0 | 0.00 | 0.00 | 0.00 | 92 | 1047.6 |
| 20260905014853 | 67 | 56 | 1.0 | 2.0 | 0.00 | 0.00 | 0.00 | 92 | 1047.4 |
| 20260905014349 | 67 | 127 | 0.0 | 1.0 | 0.00 | 0.00 | 0.00 | 91 | 1047.5 |
| 20260905013844 | 67 | 125 | 0.0 | 2.0 | 0.00 | 0.00 | 0.00 | 91 | 1047.4 |
| 20260905013340 | 68 | 161 | 1.0 | 2.0 | 0.00 | 0.00 | 0.00 | 90 | 1047.4 |
| 20260905012835 | 68 | 132 | 0.0 | 2.0 | 0.00 | 0.00 | 0.00 | 90 | 1047.3 |
| 20260905012331 | 68 | 172 | 1.0 | 3.0 | 0.00 | 0.00 | 0.00 | 90 | 1046.9 |
| 20260905011828 | 69 | 109 | 2.0 | 5.0 | 0.00 | 0.00 | 0.00 | 89 | 1046.9 |
| 20260905011328 | 69 | 128 | 2.0 | 3.0 | 0.00 | 0.00 | 0.00 | 88 | 1046.6 |
| 20260905010823 | 69 | 122 | 0.0 | 3.0 | 0.00 | 0.00 | 0.00 | 88 | 1046.5 |
| 20260905010318 | 70 | 123 | 0.0 | 1.0 | 0.00 | 0.00 | 0.00 | 87 | 1046.5 |
| 20260905005814 | 70 | 82 | 1.0 | 5.0 | 0.00 | 0.00 | 0.00 | 87 | 1046.6 |
| 20260905005309 | 71 | 131 | 1.0 | 3.0 | 0.00 | 0.00 | 0.00 | 86 | 1046.3 |
| 20260905004804 | 71 | 68 | 1.0 | 3.0 | 0.00 | 0.00 | 0.00 | 86 | 1046.4 |
| 20260905004259 | 71 | 138 | 0.0 | 5.0 | 0.00 | 0.00 | 0.00 | 85 | 1046.4 |
| 20260905003754 | 72 | 83 | 0.0 | 2.0 | 0.00 | 0.00 | 0.00 | 85 | 1046.5 |
| 20260905003250 | 72 | 159 | 0.0 | 1.0 | 0.00 | 0.00 | 0.00 | 84 | 1046.5 |
| 20260905002746 | 73 | 113 | 1.0 | 3.0 | 0.00 | 0.00 | 0.00 | 83 | 1046.5 |
| 20260905002245 | 73 | 32 | 3.0 | 3.0 | 0.00 | 0.00 | 0.00 | 83 | 1046.4 |
| 20260905001741 | 73 | 161 | 0.0 | 2.0 | 0.00 | 0.00 | 0.00 | 82 | 1046.2 |
| 20260905001239 | 74 | 73 | 5.0 | 6.0 | 0.00 | 0.00 | 0.00 | 81 | 1046.1 |
| 20260905000735 | 74 | 80 | 0.0 | 0.0 | 0.00 | 0.00 | 0.00 | 81 | 1046.2 |
| 20260905000233 | 75 | 66 | 2.0 | 3.0 | 0.00 | 0.00 | 0.00 | 80 | 1046.1 |
| 20260904235726 | 75 | 55 | 5.0 | 7.0 | 0.00 | 0.00 | 0.00 | 80 | 1046.2 |
| 20260904235221 | 75 | 118 | 1.0 | 1.0 | 0.00 | 0.00 | 0.00 | 79 | 1046.1 |
| 20260904234715 | 76 | 101 | 5.0 | 6.0 | 0.00 | 0.00 | 0.00 | 78 | 1046.1 |
| 20260904234211 | 76 | 44 | 3.0 | 3.0 | 0.00 | 0.00 | 0.00 | 79 | 1046.0 |
| 20260904233707 | 77 | 76 | 1.0 | 3.0 | 0.00 | 0.00 | 0.00 | 77 | 1045.8 |
| 20260904233202 | 77 | 156 | 2.0 | 3.0 | 0.00 | 0.00 | 0.00 | 77 | 1046.1 |
| 20260904232659 | 78 | 51 | 1.0 | 3.0 | 0.00 | 0.00 | 0.00 | 75 | 1046.0 |
| 20260904232154 | 78 | 94 | 1.0 | 3.0 | 0.00 | 0.00 | 0.00 | 75 | 1045.8 |
| 20260904231644 | 78 | 98 | 2.0 | 5.0 | 0.00 | 0.00 | 0.00 | 74 | 1045.7 |
| 20260904231139 | 79 | 34 | 3.0 | 5.0 | 0.00 | 0.00 | 0.00 | 72 | 1045.7 |
| 20260904230638 | 79 | 101 | 1.0 | 2.0 | 0.00 | 0.00 | 0.00 | 72 | 1045.8 |
| 20260904230134 | 79 | 55 | 4.0 | 6.0 | 0.00 | 0.00 | 0.00 | 71 | 1045.6 |
| 20260904225632 | 80 | 18 | 1.0 | 5.0 | 0.00 | 0.00 | 0.00 | 72 | 1045.7 |
| 20260904225127 | 80 | 50 | 3.0 | 3.0 | 0.00 | 0.00 | 0.00 | 72 | 1045.8 |
| 20260904224621 | 81 | 140 | 0.0 | 2.0 | 0.00 | 0.00 | 0.00 | 71 | 1045.4 |
| 20260904224116 | 81 | 137 | 1.0 | 5.0 | 0.00 | 0.00 | 0.00 | 70 | 1045.6 |
| 20260904223615 | 81 | 34 | 3.0 | 3.0 | 0.00 | 0.00 | 0.00 | 69 | 1045.4 |
| 20260904223110 | 81 | 106 | 3.0 | 3.0 | 0.00 | 0.00 | 0.00 | 69 | 1045.4 |
| 20260904222607 | 81 | 50 | 4.0 | 9.0 | 0.00 | 0.00 | 0.00 | 69 | 1045.5 |
| 20260904222101 | 82 | 39 | 2.0 | 5.0 | 0.00 | 0.00 | 0.00 | 69 | 1045.1 |
| 20260904221556 | 82 | 86 | 1.0 | 5.0 | 0.00 | 0.00 | 0.00 | 68 | 1045.1 |
| 20260904221055 | 83 | 74 | 1.0 | 9.0 | 0.00 | 0.00 | 0.00 | 68 | 1045.0 |
| 20260904220550 | 83 | 77 | 3.0 | 5.0 | 0.00 | 0.00 | 0.00 | 67 | 1044.9 |
| 20260904220045 | 83 | 118 | 3.0 | 5.0 | 0.00 | 0.00 | 0.00 | 66 | 1045.0 |
| 20260904215540 | 84 | 90 | 3.0 | 6.0 | 0.00 | 0.00 | 0.00 | 67 | 1045.0 |
| 20260904215036 | 84 | 123 | 0.0 | 2.0 | 0.00 | 0.00 | 0.00 | 68 | 1044.8 |
| 20260904214531 | 85 | 53 | 4.0 | 5.0 | 0.00 | 0.00 | 0.00 | 65 | 1045.0 |
| 20260904214027 | 85 | 217 | 1.0 | 2.0 | 0.00 | 0.00 | 0.00 | 65 | 1045.0 |
| 20260904213524 | 84 | 132 | 0.0 | 2.0 | 0.00 | 0.00 | 0.00 | 66 | 1045.0 |
| 20260904213022 | 85 | 92 | 5.0 | 6.0 | 0.00 | 0.00 | 0.00 | 64 | 1044.9 |
| 20260904212520 | 86 | 93 | 1.0 | 2.0 | 0.00 | 0.00 | 0.00 | 64 | 1044.9 |
| 20260904212016 | 86 | 109 | 0.0 | 3.0 | 0.00 | 0.00 | 0.00 | 65 | 1044.9 |
| 20260904211510 | 85 | 88 | 1.0 | 6.0 | 0.00 | 0.00 | 0.00 | 65 | 1044.8 |
| 20260904211006 | 84 | 66 | 2.0 | 3.0 | 0.00 | 0.00 | 0.00 | 65 | 1044.8 |
| 20260904210505 | 85 | 74 | 3.0 | 5.0 | 0.00 | 0.00 | 0.00 | 63 | 1044.9 |
| 20260904210001 | 85 | 98 | 1.0 | 2.0 | 0.00 | 0.00 | 0.00 | 65 | 1044.9 |
| 20260904205456 | 85 | 168 | 3.0 | 3.0 | 0.00 | 0.00 | 0.00 | 63 | 1045.1 |
| 20260904204953 | 85 | 139 | 0.0 | 3.0 | 0.00 | 0.00 | 0.00 | 65 | 1044.7 |
| 20260904204448 | 84 | 53 | 3.0 | 3.0 | 0.00 | 0.00 | 0.00 | 64 | 1045.0 |
| 20260904203944 | 84 | 19 | 2.0 | 3.0 | 0.00 | 0.00 | 0.00 | 63 | 1044.9 |
| 20260904203441 | 83 | 130 | 2.0 | 5.0 | 0.00 | 0.00 | 0.00 | 64 | 1044.9 |
| 20260904202936 | 83 | 189 | 1.0 | 5.0 | 0.00 | 0.00 | 0.00 | 65 | 1044.9 |
| 20260904202432 | 83 | 38 | 3.0 | 6.0 | 0.00 | 0.00 | 0.00 | 64 | 1045.3 |
| 20260904201928 | 83 | 207 | 4.0 | 6.0 | 0.00 | 0.00 | 0.00 | 65 | 1045.1 |
| 20260904201423 | 83 | 118 | 1.0 | 2.0 | 0.00 | 0.00 | 0.00 | 65 | 1045.1 |
| 20260904200919 | 82 | 77 | 3.0 | 3.0 | 0.00 | 0.00 | 0.00 | 67 | 1045.1 |
| 20260904200417 | 83 | 44 | 1.0 | 5.0 | 0.00 | 0.00 | 0.00 | 66 | 1044.9 |
| 20260904195912 | 83 | 146 | 1.0 | 2.0 | 0.00 | 0.00 | 0.00 | 65 | 1045.0 |
| 20260904195410 | 83 | 53 | 1.0 | 2.0 | 0.00 | 0.00 | 0.00 | 66 | 1045.0 |
| 20260904194904 | 83 | 84 | 2.0 | 3.0 | 0.00 | 0.00 | 0.00 | 66 | 1044.9 |
| 20260904194404 | 83 | 63 | 2.0 | 3.0 | 0.00 | 0.00 | 0.00 | 67 | 1045.0 |
| 20260904193859 | 83 | 114 | 1.0 | 6.0 | 0.00 | 0.00 | 0.00 | 68 | 1045.2 |
| 20260904193354 | 83 | 111 | 2.0 | 2.0 | 0.00 | 0.00 | 0.00 | 67 | 1045.1 |
| 20260904192849 | 82 | 103 | 2.0 | 3.0 | 0.00 | 0.00 | 0.00 | 70 | 1045.2 |
| 20260904192345 | 82 | 108 | 1.0 | 1.0 | 0.00 | 0.00 | 0.00 | 70 | 1045.2 |
| 20260904191842 | 81 | 149 | 1.0 | 1.0 | 0.00 | 0.00 | 0.00 | 72 | 1045.1 |
| 20260904191338 | 80 | 53 | 2.0 | 2.0 | 0.00 | 0.00 | 0.00 | 70 | 1045.0 |
| 20260904190834 | 80 | 66 | 2.0 | 5.0 | 0.00 | 0.00 | 0.00 | 71 | 1045.0 |
| 20260904190330 | 80 | 87 | 1.0 | 2.0 | 0.00 | 0.00 | 0.00 | 71 | 1045.2 |
| 20260904185825 | 80 | 97 | 2.0 | 5.0 | 0.00 | 0.00 | 0.00 | 72 | 1045.0 |
| 20260904185321 | 81 | 44 | 1.0 | 3.0 | 0.00 | 0.00 | 0.00 | 68 | 1044.9 |
| 20260904184821 | 80 | 136 | 1.0 | 3.0 | 0.00 | 0.00 | 0.00 | 71 | 1045.0 |
| 20260904184316 | 80 | 87 | 2.0 | 3.0 | 0.00 | 0.00 | 0.00 | 72 | 1045.1 |
| 20260904183811 | 80 | 171 | 1.0 | 2.0 | 0.00 | 0.00 | 0.00 | 75 | 1044.9 |
| 20260904183306 | 78 | 111 | 0.0 | 2.0 | 0.00 | 0.00 | 0.00 | 76 | 1044.7 |
| 20260904182802 | 78 | 193 | 1.0 | 2.0 | 0.00 | 0.00 | 0.00 | 76 | 1044.8 |
| 20260904182256 | 77 | 65 | 1.0 | 2.0 | 0.00 | 0.00 | 0.00 | 78 | 1045.0 |
| 20260904181752 | 77 | 122 | 1.0 | 2.0 | 0.00 | 0.00 | 0.00 | 78 | 1045.0 |
| 20260904181252 | 77 | 154 | 1.0 | 2.0 | 0.00 | 0.00 | 0.00 | 79 | 1045.4 |
| 20260904180747 | 76 | 163 | 1.0 | 2.0 | 0.00 | 0.00 | 0.00 | 78 | 1045.2 |
| 20260904180243 | 76 | 141 | 0.0 | 0.0 | 0.00 | 0.00 | 0.00 | 81 | 1045.1 |
| 20260904175741 | 74 | 151 | 0.0 | 1.0 | 0.00 | 0.00 | 0.00 | 83 | 1045.1 |
| 20260904175240 | 74 | 62 | 3.0 | 3.0 | 0.00 | 0.00 | 0.00 | 82 | 1045.2 |
| 20260904174735 | 73 | 67 | 1.0 | 2.0 | 0.00 | 0.00 | 0.00 | 84 | 1045.4 |
| 20260904174231 | 72 | 99 | 0.0 | 1.0 | 0.00 | 0.00 | 0.00 | 87 | 1045.4 |
| 20260904173726 | 72 | 168 | 1.0 | 2.0 | 0.00 | 0.00 | 0.00 | 87 | 1045.3 |
| 20260904173227 | 71 | 144 | 0.0 | 1.0 | 0.00 | 0.00 | 0.00 | 89 | 1045.5 |
| 20260904172723 | 71 | 163 | 0.0 | 1.0 | 0.00 | 0.00 | 0.00 | 92 | 1045.5 |
| 20260904172222 | 69 | 200 | 2.0 | 2.0 | 0.00 | 0.00 | 0.00 | 93 | 1045.5 |
| 20260904171718 | 69 | 172 | 1.0 | 1.0 | 0.00 | 0.00 | 0.00 | 94 | 1045.8 |
| 20260904171212 | 68 | 171 | 1.0 | 2.0 | 0.00 | 0.00 | 0.00 | 95 | 1045.7 |
| 20260904170709 | 68 | 143 | 0.0 | 1.0 | 0.00 | 0.00 | 0.00 | 96 | 1045.6 |
| 20260904170204 | 68 | 113 | 1.0 | 2.0 | 0.00 | 0.00 | 0.00 | 96 | 1045.5 |
| 20260904165703 | 68 | 142 | 0.0 | 1.0 | 0.00 | 0.00 | 0.00 | 96 | 1045.5 |
| 20260904165203 | 68 | 107 | 0.0 | 1.0 | 0.00 | 0.00 | 0.00 | 96 | 1045.3 |
| 20260904164657 | 68 | 134 | 0.0 | 1.0 | 0.00 | 0.00 | 0.00 | 95 | 1045.4 |
| 20260904164152 | 68 | 120 | 1.0 | 2.0 | 0.00 | 0.00 | 0.00 | 93 | 1045.3 |
| 20260904163648 | 68 | 123 | 2.0 | 3.0 | 0.00 | 0.00 | 0.00 | 93 | 1045.4 |
| 20260904163138 | 69 | 61 | 2.0 | 5.0 | 0.00 | 0.00 | 0.00 | 91 | 1045.3 |
| 20260904162637 | 69 | 78 | 1.0 | 6.0 | 0.00 | 0.00 | 0.00 | 90 | 1045.1 |
| 20260904162132 | 69 | 130 | 0.0 | 1.0 | 0.00 | 0.00 | 0.00 | 90 | 1045.1 |
| 20260904161627 | 69 | 119 | 0.0 | 2.0 | 0.00 | 0.00 | 0.00 | 90 | 1045.1 |
| 20260904161122 | 69 | 149 | 1.0 | 3.0 | 0.00 | 0.00 | 0.00 | 90 | 1045.1 |
| 20260904160619 | 69 | 136 | 0.0 | 1.0 | 0.00 | 0.00 | 0.00 | 90 | 1045.1 |
| 20260904160114 | 69 | 108 | 0.0 | 2.0 | 0.00 | 0.00 | 0.00 | 90 | 1045.0 |
| 20260904155614 | 69 | 100 | 2.0 | 3.0 | 0.00 | 0.00 | 0.00 | 90 | 1045.1 |
| 20260904155102 | 69 | 134 | 0.0 | 2.0 | 0.00 | 0.00 | 0.00 | 90 | 1044.9 |
| 20260904154556 | 68 | 41 | 1.0 | 2.0 | 0.00 | 0.00 | 0.00 | 90 | 1045.1 |
| 20260904154051 | 68 | 138 | 0.0 | 2.0 | 0.00 | 0.00 | 0.00 | 91 | 1045.0 |
| 20260904153550 | 68 | 130 | 0.0 | 2.0 | 0.00 | 0.00 | 0.00 | 91 | 1044.9 |
| 20260904153047 | 68 | 146 | 1.0 | 3.0 | 0.00 | 0.00 | 0.00 | 90 | 1044.8 |
| 20260904152542 | 68 | 101 | 1.0 | 5.0 | 0.00 | 0.00 | 0.00 | 90 | 1044.6 |
| 20260904152038 | 68 | 157 | 1.0 | 2.0 | 0.00 | 0.00 | 0.00 | 90 | 1044.7 |
| 20260904151533 | 68 | 128 | 1.0 | 2.0 | 0.00 | 0.00 | 0.00 | 90 | 1044.7 |
| 20260904151027 | 68 | 167 | 2.0 | 3.0 | 0.00 | 0.00 | 0.00 | 91 | 1044.6 |
| 20260904150526 | 68 | 126 | 2.0 | 3.0 | 0.00 | 0.00 | 0.00 | 91 | 1044.8 |
| 20260904150021 | 69 | 44 | 1.0 | 5.0 | 0.00 | 0.00 | 0.00 | 91 | 1044.6 |
| 20260904145516 | 69 | 69 | 1.0 | 5.0 | 0.00 | 0.00 | 0.00 | 91 | 1044.7 |
| 20260904145011 | 69 | 97 | 3.0 | 3.0 | 0.00 | 0.00 | 0.00 | 92 | 1044.5 |
| 20260904144507 | 70 | 39 | 1.0 | 5.0 | 0.00 | 0.00 | 0.00 | 92 | 1044.3 |
| 20260904144003 | 70 | 64 | 3.0 | 5.0 | 0.00 | 0.00 | 0.00 | 92 | 1044.0 |
| 20260904143458 | 71 | 41 | 2.0 | 2.0 | 0.00 | 0.00 | 0.00 | 92 | 1044.2 |
| 20260904142955 | 71 | 214 | 2.0 | 2.0 | 0.00 | 0.00 | 0.00 | 92 | 1043.9 |
| 20260904142451 | 71 | 100 | 0.0 | 1.0 | 0.00 | 0.00 | 0.00 | 93 | 1043.7 |
| 20260904141950 | 71 | 83 | 1.0 | 2.0 | 0.00 | 0.00 | 0.00 | 92 | 1043.5 |
| 20260904141445 | 71 | 59 | 2.0 | 2.0 | 0.00 | 0.00 | 0.00 | 92 | 1043.7 |
| 20260904140942 | 71 | 99 | 0.0 | 1.0 | 0.00 | 0.00 | 0.00 | 92 | 1043.4 |
| 20260904140441 | 71 | 94 | 3.0 | 5.0 | 0.00 | 0.00 | 0.00 | 92 | 1043.5 |
| 20260904135941 | 71 | 106 | 0.0 | 1.0 | 0.00 | 0.00 | 0.00 | 92 | 1043.2 |
| 20260904135440 | 71 | 107 | 0.0 | 0.0 | 0.00 | 0.00 | 0.00 | 92 | 1043.0 |
| 20260904134937 | 71 | 107 | 0.0 | 0.0 | 0.00 | 0.00 | 0.00 | 92 | 1043.3 |
| 20260904134436 | 71 | 156 | 1.0 | 1.0 | 0.00 | 0.00 | 0.00 | 92 | 1043.1 |
| 20260904133931 | 71 | 175 | 0.0 | 0.0 | 0.00 | 0.00 | 0.00 | 93 | 1042.9 |
| 20260904133426 | 70 | 107 | 0.0 | 0.0 | 0.00 | 0.00 | 0.00 | 93 | 1043.1 |
| 20260904132922 | 70 | 94 | 2.0 | 2.0 | 0.00 | 0.00 | 0.00 | 93 | 1042.9 |
| 20260904132417 | 70 | 97 | 2.0 | 2.0 | 0.00 | 0.00 | 0.00 | 93 | 1043.1 |
| 20260904131916 | 70 | 107 | 0.0 | 1.0 | 0.00 | 0.00 | 0.00 | 94 | 1043.0 |
| 20260904131412 | 70 | 107 | 1.0 | 1.0 | 0.00 | 0.00 | 0.00 | 94 | 1043.4 |
| 20260904130908 | 70 | 112 | 0.0 | 1.0 | 0.00 | 0.00 | 0.00 | 94 | 1042.9 |
| 20260904130406 | 70 | 113 | 0.0 | 1.0 | 0.00 | 0.00 | 0.00 | 94 | 1043.2 |
| 20260904125901 | 70 | 113 | 0.0 | 1.0 | 0.00 | 0.00 | 0.00 | 95 | 1043.2 |
| 20260904125358 | 70 | 110 | 0.0 | 1.0 | 0.00 | 0.00 | 0.00 | 94 | 1043.2 |
| 20260904124857 | 70 | 110 | 0.0 | 0.0 | 0.00 | 0.00 | 0.00 | 95 | 1042.9 |
| 20260904124354 | 70 | 111 | 0.0 | 0.0 | 0.00 | 0.00 | 0.00 | 95 | 1042.8 |
| 20260904123848 | 69 | 111 | 0.0 | 0.0 | 0.00 | 0.00 | 0.00 | 95 | 1042.9 |
| 20260904123344 | 69 | 111 | 0.0 | 0.0 | 0.00 | 0.00 | 0.00 | 95 | 1042.8 |
| 20260904122839 | 69 | 111 | 0.0 | 0.0 | 0.00 | 0.00 | 0.00 | 95 | 1042.8 |
| 20260904122338 | 69 | 111 | 0.0 | 0.0 | 0.00 | 0.00 | 0.00 | 95 | 1042.9 |
| 20260904121833 | 69 | 111 | 0.0 | 0.0 | 0.00 | 0.00 | 0.00 | 96 | 1042.7 |
| 20260904121330 | 68 | 111 | 0.0 | 0.0 | 0.00 | 0.00 | 0.00 | 96 | 1042.6 |
| 20260904120826 | 68 | 111 | 0.0 | 0.0 | 0.00 | 0.00 | 0.00 | 96 | 1042.8 |
| 20260904120321 | 69 | 111 | 0.0 | 0.0 | 0.00 | 0.00 | 0.00 | 96 | 1042.6 |
| 20260904115816 | 68 | 111 | 0.0 | 0.0 | 0.00 | 0.00 | 0.00 | 95 | 1043.0 |
| 20260904115311 | 69 | 111 | 0.0 | 0.0 | 0.00 | 0.00 | 0.00 | 95 | 1042.6 |
| 20260904114806 | 69 | 111 | 0.0 | 1.0 | 0.00 | 0.00 | 0.00 | 95 | 1042.5 |
| 20260904114300 | 69 | 111 | 0.0 | 0.0 | 0.00 | 0.00 | 0.00 | 95 | 1042.7 |
| 20260904113756 | 69 | 114 | 0.0 | 2.0 | 0.00 | 0.00 | 0.00 | 95 | 1042.6 |
| 20260904113254 | 69 | 116 | 0.0 | 0.0 | 0.00 | 0.00 | 0.00 | 95 | 1042.2 |
| 20260904112749 | 69 | 115 | 0.0 | 0.0 | 0.00 | 0.00 | 0.00 | 95 | 1042.2 |
| 20260904112245 | 69 | 111 | 0.0 | 2.0 | 0.00 | 0.00 | 0.00 | 94 | 1042.3 |
| 20260904111741 | 68 | 154 | 0.0 | 1.0 | 0.00 | 0.00 | 0.00 | 94 | 1042.2 |
| 20260904111236 | 68 | 130 | 0.0 | 1.0 | 0.00 | 0.00 | 0.00 | 94 | 1042.2 |
| 20260904110732 | 68 | 111 | 0.0 | 1.0 | 0.00 | 0.00 | 0.00 | 94 | 1042.3 |
| 20260904110231 | 68 | 110 | 1.0 | 2.0 | 0.00 | 0.00 | 0.00 | 95 | 1042.1 |
| 20260904105726 | 68 | 44 | 1.0 | 2.0 | 0.00 | 0.00 | 0.00 | 94 | 1042.2 |
| 20260904105221 | 68 | 118 | 0.0 | 1.0 | 0.00 | 0.00 | 0.00 | 94 | 1042.2 |
| 20260904104716 | 68 | 131 | 1.0 | 3.0 | 0.00 | 0.00 | 0.00 | 94 | 1042.3 |
| 20260904104211 | 68 | 126 | 0.0 | 1.0 | 0.00 | 0.00 | 0.00 | 94 | 1042.2 |
| 20260904103709 | 68 | 113 | 1.0 | 1.0 | 0.00 | 0.00 | 0.00 | 94 | 1042.2 |
| 20260904103203 | 68 | 102 | 0.0 | 1.0 | 0.00 | 0.00 | 0.00 | 94 | 1042.6 |
| 20260904102659 | 68 | 169 | 0.0 | 1.0 | 0.00 | 0.00 | 0.00 | 94 | 1042.5 |
| 20260904102154 | 68 | 159 | 0.0 | 1.0 | 0.00 | 0.00 | 0.00 | 94 | 1042.2 |
| 20260904101651 | 67 | 136 | 0.0 | 2.0 | 0.00 | 0.00 | 0.00 | 94 | 1042.3 |
| 20260904101146 | 67 | 166 | 2.0 | 3.0 | 0.00 | 0.00 | 0.00 | 94 | 1042.3 |
| 20260904100642 | 67 | 134 | 0.0 | 1.0 | 0.00 | 0.00 | 0.00 | 94 | 1042.4 |
| 20260904100137 | 67 | 140 | 1.0 | 2.0 | 0.00 | 0.00 | 0.00 | 94 | 1042.3 |
| 20260904095637 | 67 | 56 | 3.0 | 6.0 | 0.00 | 0.00 | 0.00 | 94 | 1042.6 |
| 20260904095131 | 66 | 73 | 0.0 | 5.0 | 0.00 | 0.00 | 0.00 | 94 | 1042.7 |
| 20260904094627 | 66 | 118 | 1.0 | 2.0 | 0.00 | 0.00 | 0.00 | 94 | 1042.9 |
| 20260904094121 | 66 | 21 | 3.0 | 6.0 | 0.00 | 0.00 | 0.00 | 94 | 1042.6 |
| 20260904093618 | 66 | 70 | 1.0 | 2.0 | 0.00 | 0.00 | 0.00 | 94 | 1042.7 |
| 20260904093113 | 66 | 174 | 1.0 | 6.0 | 0.00 | 0.00 | 0.00 | 94 | 1043.0 |
| 20260904092609 | 66 | 166 | 0.0 | 2.0 | 0.00 | 0.00 | 0.00 | 94 | 1042.9 |
| 20260904092105 | 66 | 99 | 3.0 | 5.0 | 0.00 | 0.00 | 0.00 | 94 | 1043.0 |
| 20260904091601 | 66 | 55 | 4.0 | 5.0 | 0.00 | 0.00 | 0.00 | 94 | 1042.8 |
| 20260904091100 | 66 | 73 | 4.0 | 6.0 | 0.00 | 0.00 | 0.00 | 94 | 1043.0 |
| 20260904090556 | 66 | 112 | 1.0 | 6.0 | 0.00 | 0.00 | 0.00 | 94 | 1043.0 |
| 20260904090051 | 66 | 127 | 1.0 | 3.0 | 0.00 | 0.00 | 0.00 | 95 | 1042.8 |
| 20260904085546 | 66 | 14 | 2.0 | 3.0 | 0.00 | 0.00 | 0.00 | 95 | 1043.2 |
| 20260904085045 | 66 | 119 | 1.0 | 5.0 | 0.00 | 0.00 | 0.00 | 96 | 1042.9 |
| 20260904084541 | 66 | 130 | 1.0 | 2.0 | 0.00 | 0.00 | 0.00 | 97 | 1042.8 |
| 20260904084038 | 67 | 82 | 1.0 | 5.0 | 0.00 | 0.00 | 0.00 | 97 | 1042.9 |